Regional Weather Roundup
Issued by NWS

Home | Current Version | Previous Version | Text Only | Print | Product List | Glossary On
Versions: 1 2 3 4 5 6 7 8 9 10 11 12 13 14 15 16 17 18 19 20 21 22 23 24 25 26 27 28 29 30 31 32 33 34 35 36 37 38 39 40 41 42 43 44 45 46 47 48 49 50
000
ASUS43 KTOP 020208
RWRKS

WEATHER ROUNDUP FOR KANSAS
NATIONAL WEATHER SERVICE GOODLAND KS
800 PM CST SUN MAR 01 2015

NOTE:  "FAIR" INDICATES FEW OR NO CLOUDS BELOW 12,000 FEET WITH NO
SIGNIFICANT WEATHER AND/OR OBSTRUCTIONS TO VISIBILITY.

KSZ001>006-013>018-027>032-041>047-020300-
NORTHWEST KANSAS

CITY           SKY/WX    TMP DP  RH WIND       PRES   REMARKS
GOODLAND       CLOUDY    30  22  72 SE3       30.31R
HAYS           MOCLDY    27  14  59 W6        30.39R
HILL CITY      MOCLDY    31  20  63 S5        30.37R
RUSSELL        PTCLDY    28  20  71 SE6       30.38R
$$

KSZ061>065-074>080-084>089-020300-
SOUTHWEST KANSAS

CITY           SKY/WX    TMP DP  RH WIND       PRES   REMARKS
DODGE CITY     CLOUDY    27  20  75 N6        30.37S
ELKHART          N/A     27  20  75 NE5         N/A
GARDEN CITY    CLOUDY    27  22  81 CALM      30.35R
GREAT BEND     PTCLDY    27  19  74 NW6       30.40R
LIBERAL        CLOUDY    28  21  74 NE3       30.37R
PRATT          MOCLDY    28  23  80 NW3       30.41R
$$

KSZ066>073-081>083-090>101-020300-
SOUTHEAST KANSAS

CITY           SKY/WX    TMP DP  RH WIND       PRES   REMARKS
CHANUTE        PTCLDY    23  19  85 CALM      30.43R
COFFEYVILLE    PTCLDY    26  21  81 N6        30.44R
HUTCHINSON     PTCLDY    29  20  69 NE3       30.41R
MEDICINE LODGE   N/A     28  22  78 NE3       30.41R
NEWTON         PTCLDY    27  16  63 NE3       30.42R
PARSONS        PTCLDY    28  21  75 N5        30.44R
WICHITA INTL   MOCLDY    29  19  66 NE6       30.42R
WICHITA JABRA  MOCLDY    25  19  78 N5        30.41R
WICHITA MCCONL MOCLDY    26  19  76 NE1       30.41R
WINFIELD       PTCLDY    25  20  81 N5        30.43R
$$

KSZ007>012-019>026-033>040-048>060-102>105-020300-
NORTHEAST KANSAS

CITY           SKY/WX    TMP DP  RH WIND       PRES   REMARKS
CONCORDIA      MOCLDY    28  20  71 SW6       30.41R
EMPORIA        PTCLDY    27  20  75 N5        30.41R
LAWRENCE       CLEAR     25  20  81 N3        30.45R
MANHATTAN      PTCLDY    27  20  75 CALM      30.43R
MARYSVILLE     CLOUDY    30  23  74 SW3       30.41R
OLATHE IND     CLEAR     25  20  81 N3        30.43R
OLATHE EXE     PTCLDY    26  19  74 CALM      30.42R
SALINA         FAIR      28  20  71 CALM      30.42R
TOPEKA BILLARD CLEAR     27  20  75 CALM      30.45R
TOPEKA FORBES  CLEAR     24  19  81 CALM      30.43R
$$



USA.gov is the U.S. government's official web portal to all federal, state and local government web resources and services.